SCP
-0 -0 -0 -0 -0 -0 -0 -0 -0 -0 -0 -0 -0 -0 -0 -0 -0 -0 -0 0 -0 0 0 -0 0 0 0 -0 -0 0 0 0 0 0 0 0 -0 -0 0 0 0 0 0 0 0 0 0 0 0 0 0 0 0 0
-0 -0 -0 -0 -0 -0 -0 -0 -0 -0 -0 -0 -0 -0 -0 -0 -0 -0 -0 -0 -0 -0 0 -0 0 -0 -0 -0 -0 0 0 0 0 0 0 0 0 0 -0 0 0 0 0 0 0 0 0 0 0 0 0 0 0 0
-0 -0 -0 -0 -0 -0 -0 -0 -0 -0 -0 -0 -0 -0 -0 -0 -0 -0 -0 -0 -0 -0 -0 -0 0 -0 -0 -0 -0 0 0 0 0 0 0 0 0 -0 0 -0 0 0 0 0 0 0 0 0 0 0 0 0 0 0
0 0 0 -0 -0 -0 -0 -0 -0 -0 -0 -0 -0 -0 -0 -0 -0 -0 -0 -0 -0 -0 0 0 -0 0 -0 -0 -0 0 0 0 -0 0 0 0 0 0 0 -0 -0 -0 0 0 -0 -0 0 0 0 0 -0 0 0 0
0 -0 0 0 -0 -0 -0 -0 -0 -0 -0 -0 -0 -0 -0 -0 -0 0 0 0 -0 -0 0 0 0 -0 -0 0 0 0 0 0 0 0 0 0 0 0 0 0 -0 -0 0 0 -0 0 0 0 -0 -0 0 0 0 0
0 -0 -0 0 0 0 -0 -0 -0 -0 -0 0 -0 0 0 0 0 -0 -0 -0 0 0 -0 0 -0 -0 0 0 0 0 0 0 0 0 0 0 0 0 0 0 0 -0 -0 -0 0 0 0 0 0 0 0 0 0 0
0 0 0 -0 -0 -0 -0 0 0 0 0 -0 -0 -0 -0 0 0 -0 -0 0 0 0 -0 -0 -0 -0 -0 -0 0 0 0 0 0 0 0 0 0 0 0 0 0 0 0 0 0 0 0 0 0 0 0 0 0 0
-0 -0 0 0 0 0 0 0 0 0 0 0 0 0 -0 -0 -0 -0 0 -0 0 -0 -0 0 0 0 -0 0 0 0 0 0 0 0 0 0 0 0 0 -0 0 0 0 0 0 0 0 0 0 0 0 0 0 0
-0 -0 -0 0 0 0 0 0 0 0 0 0 0 -0 -0 -0 0 0 -0 0 0 0 0 0 0 0 0 0 0 0 0 0 0 0 0 0 0 0 0 0 0 0 0 0 0 0 0 0 0 0 0 0 0 0
-0 -0 -0 0 0 0 0 0 0 0 0 0 0 0 0 0 0 0 0 0 0 0 0 0 0 0 0 0 0 0 0 0 0 0 0 0 0 0 0 0 0 0 0 0 0 0 0 0 0 0 0 0 0 0
0 0 -0 0 0 0 0 0 0 0 0 0 0 0 0 0 0 0 0 0 0 0 0 0 0 0 0 0 0 0 0 0 0 0 0 0 0 0 0 0 0 0 0 0 0 0 0 0 0 0 0 0 0 0
0 0 0 0 0 0 0 0 0 0 0 0 0 0 0 0 0 0 0 0 0 0 0 0 0 0 0 0 0 0 0 0 0 0 0 0 0 0 0 0 0 0 0 0 0 0 0 0 0 0 0 0 0 0
0 0 0 0 0 0 0 0 0 0 0 0 0 0 0 0 0 0 0 0 0 0 0 0 0 0 0 0 0 0 0 0 0 0 0 0 0 0 0 0 0 0 0 0 0 0 0 0 0 0 0 0 0 0
0 0 0 0 0 0 0 0 0 0 0 0 0 0 0 0 0 0 0 0 0 0 0 0 0 0 0 0 0 0 0 0 0 0 0 0 0 0 0 0 0 0 0 0 0 0 0 0 0 0 0 0 0 0
0 0 0 0 0 0 0 0 0 0 0 0 0 0 0 0 0 0 0 0 0 0 0 0 0 0 0 0 0 0 0 0 0 0 0 0 0 0 0 0 0 0 0 0 0 0 0 0 0 0 0 0 0 0
0 0 0 0 0 0 0 0 0 0 0 0 0 0 0 0 0 0 0 0 0 0 0 0 0 0 0 0 0 0 0 0 0 0 0 0 0 0 0 0 0 0 0 0 0 0 0 0 0 0 0 0 0 0
0 0 0 0 0 0 0 0 0 0 0 0 0 0 0 0 0 0 0 0 0 0 0 0 0 0 0 0 0 0 0 0 0 0 0 0 0 0 0 0 0 0 0 0 0 0 0 0 0 0 0 0 0 0
0 0 0 0 0 0 0 0 0 0 0 0 0 0 0 0 0 0 0 0 0 0 0 0 0 0 0 0 0 0 0 0 0 0 0 0 0 0 0 0 0 0 0 0 0 0 0 0 0 0 0 0 0 0
0 0 0 0 0 0 0 0 0 0 0 0 0 0 0 0 0 0 0 0 0 0 0 0 0 0 0 0 0 0 0 0 0 0 0 0 0 0 0 0 0 0 0 0 0 0 0 0 0 0 0 0 0 0
0 0 0 0 0 0 0 0 0 0 0 0 0 0 0 0 0 0 0 0 0 0 0 0 0 0 0 0 0 0 0 0 0 0 0 0 0 0 0 0 0 0 0 0 0 0 0 0 0 0 0 0 0 0
0 0 0 0 0 0 0 0 0 0 0 0 0 0 0 0 0 0 0 0 0 0 0 0 0 0 0 0 0 0 0 0 0 0 0 0 0 0 0 0 0 0 0 0 0 0 0 0 0 0 0 0 0 0
0 0 0 0 0 0 0 0 0 0 0 0 0 0 0 0 0 0 0 0 0 0 0 0 0 0 0 0 0 0 0 0 0 0 0 0 0 0 0 0 0 0 0 0 0 0 0 0 0 0 0 0 0 0
0 0 0 0 0 0 0 0 0 0 0 0 0 0 0 0 0 0 0 0 0 0 0 0 0 0 0 0 0 0 0 0 0 0 0 0 0 0 0 0 0 0 0 0 0 0 0 0 0 0 0 0 0 0
0 0 0 0 0 0 0 0 0 0 0 0 0 0 0 0 0 0 0 0 0 0 0 0 0 0 0 0 0 0 0 0 0 0 0 0 0 0 0 0 0 0 0 0 0 0 0 0 0 0 0 0 0 0
0 0 0 0 0 0 0 0 0 0 0 0 0 0 0 0 0 0 0 0 0 0 0 0 0 0 0 0 0 0 0 0 0 0 0 0 0 0 0 0 0 0 0 0 0 0 0 0 0 0 0 0 0 0
0 0 0 0 0 0 0 0 0 0 0 0 0 0 0 0 0 0 0 0 0 0 0 0 0 0 0 0 0 0 0 0 0 0 0 0 0 0 0 0 0 0 0 0 0 0 0 0 0 0 0 0 0 0
0 0 0 0 0 0 0 0 0 0 0 0 0 0 0 0 0 0 0 0 0 0 0 0 0 0 0 0 0 0 0 0 0 0 0 0 0 0 0 0 0 0 0 0 0 0 0 0 0 0 0 0 0 0
0 0 0 0 0 0 0 0 0 0 0 0 0 0 0 0 0 0 0 0 0 0 0 0 0 0 0 0 0 0 0 0 0 0 0 0 0 0 0 0 0 0 0 0 0 0 0 0 0 0 0 0 0 0
0 0 0 0 0 0 0 0 0 0 0 0 0 0 0 0 0 0 0 0 0 0 0 0 0 0 0 0 0 0 0 0 0 0 0 0 0 0 0 0 0 0 0 0 0 0 0 0 0 0 0 0 0 0
0 0 0 0 0 0 0 0 0 0 0 0 0 0 0 0 0 0 0 0 0 0 0 0 0 0 0 0 0 0 0 0 0 0 0 0 0 0 0 0 0 0 0 0 0 0 0 0 0 0 0 0 0 0
0 0 0 0 0 0 0 0 0 0 0 0 0 0 0 0 0 0 0 0 0 0 0 0 0 0 0 0 0 0 0 0 0 0 0 0 0 0 0 0 0 0 0 0 0 0 0 0 0 0 0 0 0 0
0 0 0 0 0 0 0 0 0 0 0 0 0 0 0 0 0 0 0 0 0 0 0 0 0 0 0 0 0 0 0 0 0 0 0 0 0 0 0 0 0 0 0 0 0 0 0 0 0 0 0 0 0 0
0 0 0 0 0 0 0 0 0 0 0 0 0 0 0 0 0 0 0 0 0 0 0 0 0 0 0 0 0 0 0 0 0 0 0 0 0 0 0 0 0 0 0 0 0 0 0 0 0 0 0 0 0 0
Wind_Speed_500mb
20 23 24 23 20 14 11 7 4 4 4 4 4 3 7 10 10 12 14 15 12 6 19 16 11 11 14 9 7 7 6 2 5 7 6 5 4 6 1 6 10 13 11 7 6 6 16 7 8 13 6 56 74 66
23 21 21 22 23 21 17 14 10 6 4 3 5 8 12 14 14 15 11 7 5 2 6 11 13 17 17 10 12 14 6 3 7 7 2 5 2 3 5 5 3 6 12 7 16 13 10 11 24 47 56 58 74 68
19 25 22 19 19 20 20 19 17 15 15 13 12 12 10 11 17 19 17 10 6 2 5 7 12 21 28 24 20 12 11 10 9 8 12 4 5 7 5 10 5 9 13 8 2 14 32 54 57 59 74 55 54 58
19 19 25 26 23 20 18 16 14 13 12 11 10 7 4 9 13 16 6 3 3 1 1 3 4 4 9 21 29 28 13 17 11 7 4 5 5 19 6 8 9 15 7 8 14 31 47 50 41 40 61 49 58 57
22 21 20 26 28 28 25 21 17 14 11 8 10 10 8 7 6 4 5 1 3 2 2 6 16 21 16 18 23 24 20 19 14 6 6 5 7 3 9 4 21 28 13 8 11 34 35 42 59 61 62 60 48 43
24 21 19 19 24 26 28 28 25 21 17 13 12 11 9 6 0 3 4 4 10 10 2 4 5 3 4 9 16 18 20 18 15 11 10 11 10 5 5 7 21 41 50 57 40 50 56 68 72 71 43 52 56 55
25 22 19 19 19 19 21 22 24 27 23 19 15 13 15 13 11 5 2 9 7 15 6 5 4 5 8 11 11 11 17 13 16 9 11 9 15 14 5 8 8 20 21 28 44 41 43 35 36 43 47 53 59 57
32 26 22 17 13 14 13 17 18 19 21 21 19 18 17 19 17 16 15 11 9 6 3 3 6 4 11 9 9 12 10 16 15 9 7 8 8 14 12 38 32 19 28 42 26 27 53 63 58 46 36 36 38 39
41 35 29 24 19 15 13 13 10 11 13 14 13 13 11 9 12 14 19 26 19 9 4 6 7 7 15 7 7 10 9 3 7 7 7 7 5 15 20 40 38 32 29 55 53 31 16 16 24 26 31 36 43 49
48 44 38 33 28 22 18 15 14 13 14 13 11 8 6 5 7 3 4 5 16 11 10 9 9 3 13 10 9 7 4 4 3 6 5 5 9 46 55 52 49 45 22 12 14 14 25 28 34 41 48 52 55 60
53 50 47 40 36 30 26 22 20 18 17 17 12 9 10 14 9 5 5 4 8 5 13 11 26 9 15 7 7 8 3 1 1 7 6 6 7 10 12 10 9 10 8 9 12 17 24 33 44 53 59 59 60 64
60 55 52 48 42 37 32 28 25 24 17 18 11 13 13 9 6 8 2 5 6 10 15 15 13 12 12 11 8 6 5 3 10 2 4 7 9 17 9 14 15 11 12 15 22 30 37 45 49 56 61 64 63 65
69 63 58 53 48 44 40 36 30 27 22 18 10 10 9 5 6 16 13 8 4 16 24 19 8 15 11 10 11 6 6 9 2 2 8 10 5 15 16 12 5 8 16 25 32 40 46 51 56 62 67 64 65 63
72 67 60 56 52 46 41 41 38 34 19 12 15 7 11 8 12 11 10 10 15 14 46 39 18 9 9 7 7 8 3 4 3 5 13 6 27 23 14 3 8 15 25 34 42 48 54 58 59 56 59 62 64 62
69 65 60 55 56 53 45 48 35 40 16 13 12 11 14 19 9 11 23 12 17 41 55 22 14 5 2 6 2 7 3 10 12 10 7 15 33 23 8 12 23 34 40 47 55 62 65 64 62 61 56 56 57 55
67 61 67 64 59 60 57 51 40 37 12 14 20 4 11 3 6 15 25 23 35 59 28 10 8 7 8 8 7 17 10 15 7 8 17 28 31 18 17 27 34 37 46 55 60 63 61 58 59 58 54 51 49 47
70 76 75 69 62 63 76 62 49 24 22 17 17 35 27 10 15 30 40 30 53 48 7 9 12 18 6 4 7 10 11 7 15 17 9 15 26 26 33 35 40 48 54 58 57 53 53 53 53 53 51 41 39 37
83 79 72 72 73 75 89 64 30 24 25 29 12 34 47 42 32 21 33 49 54 37 22 12 17 10 12 14 8 9 36 28 18 15 19 21 28 37 38 45 48 53 54 51 49 48 46 46 45 44 43 42 37 35
91 88 80 80 93 81 42 37 34 15 39 21 38 38 48 38 56 53 47 53 65 40 20 22 10 10 9 12 13 20 22 25 27 25 33 45 43 43 47 47 51 49 45 42 39 38 38 39 40 39 37 37 36 34
84 81 81 81 104 48 22 21 28 29 18 29 29 36 41 35 50 57 57 57 74 26 13 11 12 28 19 29 37 40 31 32 40 54 58 53 47 43 43 45 44 39 33 30 32 35 33 29 31 32 31 31 32 31
83 84 78 86 100 58 28 21 30 16 16 24 26 41 22 26 30 40 48 59 42 19 8 51 75 84 76 72 57 48 49 51 57 52 47 45 41 37 38 36 32 29 27 26 25 26 29 29 28 28 29 29 29 29
79 88 67 106 43 30 37 40 18 25 15 9 28 25 14 11 16 28 31 37 23 42 51 62 75 82 86 84 78 69 65 68 57 50 45 42 37 30 27 23 19 20 20 19 19 19 20 22 24 26 26 26 27 27
72 99 64 44 26 42 17 46 25 28 9 14 27 10 5 9 13 32 15 22 25 61 66 78 89 90 86 85 79 68 61 59 44 42 39 34 28 23 18 15 13 12 13 15 15 15 17 19 21 22 23 23 23 24
93 64 44 40 33 18 28 27 21 23 18 12 11 9 9 14 25 8 9 11 30 33 60 81 94 93 89 87 85 76 56 46 43 34 31 27 22 18 15 11 10 9 9 9 13 14 14 15 16 18 19 21 23 24
44 34 29 16 23 18 13 12 10 8 22 9 12 9 8 19 7 9 9 8 38 53 69 78 83 87 91 72 77 62 49 41 31 28 26 24 21 17 15 12 10 9 9 7 7 8 9 12 15 18 22 24 25 27
24 22 24 29 17 18 27 29 21 13 10 12 8 12 15 8 10 14 8 20 53 49 66 75 81 78 74 74 61 48 39 33 28 29 26 23 20 18 15 14 11 7 4 2 5 9 13 15 18 20 23 26 28 30
18 11 16 26 31 25 7 5 17 9 14 15 13 13 10 11 15 8 11 22 28 39 40 46 57 64 66 53 47 38 31 31 32 27 23 23 19 16 15 11 9 9 11 13 14 15 15 18 20 21 24 27 31 36
10 23 24 17 9 44 25 10 14 19 10 23 23 17 24 19 8 5 6 8 16 20 23 29 33 34 30 32 32 33 39 38 32 27 23 19 16 15 13 15 18 19 20 18 17 17 17 17 18 20 25 30 36 41
6 26 34 12 7 8 13 20 17 13 38 37 18 12 9 9 7 8 8 10 13 15 16 18 23 26 31 36 38 36 31 30 28 26 23 19 21 20 24 27 26 24 22 21 17 14 12 12 16 22 28 35 41 45
6 21 7 8 9 6 6 5 10 27 22 24 26 22 17 14 17 14 12 15 18 19 22 23 29 31 35 36 36 33 29 25 22 19 20 23 25 31 32 31 28 27 24 17 12 8 8 14 20 25 31 39 45 52
7 10 11 8 7 6 32 43 40 40 22 20 21 21 25 21 25 27 19 17 18 21 24 25 26 29 27 27 26 23 23 23 23 24 25 29 33 31 31 31 31 26 19 12 7 6 13 19 25 31 39 47 53 61
10 6 8 9 6 20 21 12 15 15 15 13 14 16 14 13 12 11 19 13 14 17 21 21 22 24 25 25 25 23 22 27 28 28 30 32 33 32 33 31 26 20 13 7 4 11 20 27 34 41 49 55 61 66
10 14 14 12 6 7 9 14 10 10 16 10 15 14 14 11 10 15 17 12 9 12 15 17 19 21 23 25 23 22 27 29 29 29 30 31 33 34 32 27 21 15 8 1 11 21 30 37 42 47 54 60 66 66
Wind_Direction_500mb
200 196 206 206 206 205 210 194 159 114 102 101 105 75 35 24 20 26 41 49 63 100 171 201 195 164 151 172 136 149 64 24 52 63 109 217 128 232 79 215 186 180 169 200 161 199 265 188 179 196 225 324 308 304
212 202 202 205 213 210 207 207 210 212 228 281 310 318 323 321 322 319 316 326 5 86 156 192 220 211 219 208 170 159 147 177 177 85 59 103 266 17 166 263 184 261 197 191 188 218 235 214 244 277 294 301 309 306
219 213 207 202 204 212 218 220 225 238 254 262 273 295 303 315 326 318 292 273 296 291 249 233 229 231 231 228 214 154 190 196 192 179 160 180 223 125 174 240 245 262 236 234 207 272 257 278 289 293 302 310 317 319
237 222 214 214 214 215 213 214 216 225 241 246 245 248 300 329 340 342 37 346 210 290 97 173 176 170 216 219 208 212 157 176 194 193 217 188 179 193 235 236 198 218 180 209 262 281 287 277 288 316 313 313 314 314
220 234 219 217 219 220 222 222 223 234 246 243 237 262 285 305 317 354 92 302 219 281 315 313 280 290 259 216 200 206 200 216 220 197 222 238 225 253 259 280 252 205 213 190 229 260 265 278 301 306 302 305 308 308
218 219 222 219 218 220 221 223 227 229 235 245 254 257 258 275 63 113 73 203 215 230 261 319 315 4 38 159 196 212 220 215 207 195 208 230 227 233 258 250 240 241 237 241 248 272 288 293 291 296 290 301 302 303
224 220 218 217 210 211 218 220 223 227 230 236 241 247 256 257 229 222 180 139 90 158 194 294 265 190 149 154 183 202 208 197 203 216 228 224 194 203 246 246 202 227 243 260 281 289 288 292 283 287 297 299 302 305
210 215 217 212 203 198 211 219 216 217 222 228 238 249 249 245 244 228 217 190 174 241 178 242 263 203 178 176 172 183 177 193 209 239 241 205 212 212 249 240 263 276 277 287 288 280 289 288 291 299 302 311 313 321
207 209 209 203 201 197 195 189 192 206 213 211 220 239 266 231 211 238 242 211 204 227 217 214 171 231 164 167 162 175 188 184 209 221 228 192 199 225 234 256 265 278 293 293 293 299 305 327 328 331 331 334 330 329
207 209 209 204 200 199 193 183 177 177 178 183 186 192 198 191 190 172 81 109 189 215 227 240 195 167 161 162 177 166 210 223 237 256 288 211 254 255 255 257 275 284 287 296 329 0 351 352 349 341 338 335 330 325
212 211 211 210 206 202 201 197 188 182 172 172 182 185 173 168 169 162 113 128 183 278 215 215 202 145 177 137 184 193 177 280 32 257 159 271 272 239 191 209 212 161 110 59 26 2 348 337 333 328 327 325 320 317
216 215 213 211 211 207 206 208 199 189 181 178 171 156 160 173 145 97 223 326 219 224 187 166 166 167 155 168 127 163 150 53 248 338 69 264 253 218 175 144 118 79 39 12 351 339 331 326 321 317 315 314 312 311
217 217 216 212 208 210 207 210 202 190 178 160 194 168 175 174 69 172 206 249 264 194 177 159 144 161 144 172 92 102 130 221 114 57 235 236 288 163 154 125 72 358 340 333 331 327 322 320 316 314 312 312 309 310
219 216 216 210 204 208 205 206 199 185 177 203 176 238 181 215 237 192 182 183 185 174 158 148 125 146 139 130 141 132 197 81 358 252 236 244 209 176 161 198 306 311 315 320 322 321 320 317 316 315 314 313 312 310
216 213 208 207 200 201 203 209 203 189 199 216 197 224 212 225 238 207 193 162 157 157 151 123 93 148 71 107 173 101 47 245 215 230 230 215 165 175 216 290 312 317 316 318 317 317 317 315 313 313 313 312 308 307
209 206 207 206 197 191 201 206 201 198 223 230 224 221 210 168 224 209 197 183 165 160 153 140 124 90 234 144 134 213 178 221 235 217 230 180 188 219 275 301 301 303 309 312 314 314 314 314 313 314 314 311 307 308
204 205 205 199 191 186 201 201 197 201 220 220 230 219 207 241 218 212 204 188 173 163 181 145 159 206 101 88 235 194 214 216 217 214 185 211 234 263 289 295 304 306 307 310 312 314 315 316 317 316 313 312 306 308
206 206 206 194 182 183 188 190 197 221 229 217 194 198 211 222 225 210 194 186 170 192 178 205 140 192 205 195 220 221 230 239 233 230 259 285 278 285 289 300 302 304 308 312 314 317 318 319 318 317 314 312 313 314
205 205 203 190 186 184 181 200 207 236 220 204 211 206 217 220 228 233 230 214 197 194 195 173 228 208 224 212 221 237 232 256 273 280 299 308 304 297 297 297 301 306 310 312 317 322 325 326 325 325 323 321 320 322
209 207 204 197 191 185 180 212 203 230 206 224 210 195 210 219 218 220 221 214 202 195 184 209 208 233 215 227 244 254 266 263 278 292 293 298 297 291 291 295 298 301 307 317 322 324 327 331 327 330 329 327 326 329
203 202 200 195 191 199 197 210 205 226 211 195 198 203 207 206 205 203 207 207 194 211 229 225 240 249 252 257 257 255 257 274 282 282 285 292 289 283 288 288 291 297 308 317 324 326 331 337 341 342 341 338 337 336
196 187 181 188 192 200 216 214 218 181 183 157 156 169 154 165 188 202 201 193 226 226 228 236 243 250 255 258 258 257 261 272 272 273 281 283 280 278 276 272 275 286 299 317 330 337 342 345 344 344 345 345 346 344
186 185 185 186 184 191 220 206 187 183 161 181 153 123 190 203 197 174 221 220 235 232 234 238 244 249 255 259 260 256 254 260 255 267 276 270 267 263 253 253 258 271 298 310 320 336 343 346 347 347 349 350 351 351
186 181 189 182 179 176 174 190 200 153 131 155 156 188 183 164 160 201 255 240 223 221 228 239 243 245 247 250 252 252 248 248 257 260 255 250 241 234 233 231 240 258 271 294 317 327 341 349 356 4 8 14 17 18
183 184 182 177 172 135 151 158 165 172 209 141 160 182 171 156 171 226 221 242 214 226 232 233 237 242 242 248 255 250 240 245 247 241 229 216 215 214 214 217 229 253 286 312 342 2 16 32 40 42 43 40 34 27
202 191 175 168 160 179 200 201 182 162 127 152 179 109 147 156 195 240 208 215 213 225 227 233 236 239 241 242 245 242 242 237 221 209 202 200 204 204 214 226 229 228 211 146 95 87 80 72 60 50 43 38 31 22
200 155 162 165 167 168 94 153 130 137 176 180 155 152 159 203 231 232 201 206 206 214 224 232 238 243 249 247 238 234 217 199 193 191 186 190 200 213 221 220 199 179 150 128 116 102 88 78 65 47 32 22 14 6
148 156 167 171 155 196 192 131 152 182 162 147 139 170 178 202 199 169 201 223 213 215 221 228 230 229 223 211 204 193 182 179 176 175 183 193 202 206 195 173 156 145 136 126 117 109 92 67 46 29 16 8 360 353
139 163 138 156 121 175 191 188 186 165 153 165 165 158 143 97 100 136 136 139 153 159 165 169 162 165 167 164 165 167 172 173 180 182 191 197 188 178 163 154 148 145 140 132 125 102 74 42 19 7 359 354 349 344
119 159 101 115 145 135 34 66 106 134 137 134 124 112 98 93 77 99 118 139 145 150 153 155 154 156 161 163 164 166 171 179 185 185 192 183 171 162 156 153 150 147 140 138 125 93 34 5 354 347 344 343 341 340
87 86 78 62 72 68 102 98 110 102 88 72 81 102 117 122 86 71 87 110 125 136 145 149 153 156 161 162 162 164 170 173 171 166 163 158 157 158 157 156 153 150 150 144 106 27 358 345 337 336 338 340 340 338
47 66 117 108 104 144 112 70 66 63 49 51 62 82 95 91 75 58 39 89 115 137 143 146 150 154 158 156 157 162 166 166 165 163 161 161 162 163 162 161 161 160 161 135 40 357 349 344 341 338 337 337 337 336
88 85 100 108 116 161 146 105 88 89 56 55 51 54 59 75 84 34 29 46 112 130 138 145 150 155 157 155 158 159 159 159 160 164 166 168 169 168 169 172 173 176 177 341 338 339 339 337 336 335 335 334 333 333
Wind_Speed_850mb
20 23 24 23 20 14 11 7 4 4 4 4 4 3 7 10 10 12 14 15 12 6 19 16 11 11 14 9 7 7 6 2 5 7 6 5 4 6 1 6 10 13 11 7 6 6 16 7 8 13 6 56 74 66
23 21 21 22 23 21 17 14 10 6 4 3 5 8 12 14 14 15 11 7 5 2 6 11 13 17 17 10 12 14 6 3 7 7 2 5 2 3 5 5 3 6 12 7 16 13 10 11 24 47 56 58 74 68
19 25 22 19 19 20 20 19 17 15 15 13 12 12 10 11 17 19 17 10 6 2 5 7 12 21 28 24 20 12 11 10 9 8 12 4 5 7 5 10 5 9 13 8 2 14 32 54 57 59 74 55 54 58
19 19 25 26 23 20 18 16 14 13 12 11 10 7 4 9 13 16 6 3 3 1 1 3 4 4 9 21 29 28 13 17 11 7 4 5 5 19 6 8 9 15 7 8 14 31 47 50 41 40 61 49 58 57
22 21 20 26 28 28 25 21 17 14 11 8 10 10 8 7 6 4 5 1 3 2 2 6 16 21 16 18 23 24 20 19 14 6 6 5 7 3 9 4 21 28 13 8 11 34 35 42 59 61 62 60 48 43
24 21 19 19 24 26 28 28 25 21 17 13 12 11 9 6 0 3 4 4 10 10 2 4 5 3 4 9 16 18 20 18 15 11 10 11 10 5 5 7 21 41 50 57 40 50 56 68 72 71 43 52 56 55
25 22 19 19 19 19 21 22 24 27 23 19 15 13 15 13 11 5 2 9 7 15 6 5 4 5 8 11 11 11 17 13 16 9 11 9 15 14 5 8 8 20 21 28 44 41 43 35 36 43 47 53 59 57
32 26 22 17 13 14 13 17 18 19 21 21 19 18 17 19 17 16 15 11 9 6 3 3 6 4 11 9 9 12 10 16 15 9 7 8 8 14 12 38 32 19 28 42 26 27 53 63 58 46 36 36 38 39
41 35 29 24 19 15 13 13 10 11 13 14 13 13 11 9 12 14 19 26 19 9 4 6 7 7 15 7 7 10 9 3 7 7 7 7 5 15 20 40 38 32 29 55 53 31 16 16 24 26 31 36 43 49
48 44 38 33 28 22 18 15 14 13 14 13 11 8 6 5 7 3 4 5 16 11 10 9 9 3 13 10 9 7 4 4 3 6 5 5 9 46 55 52 49 45 22 12 14 14 25 28 34 41 48 52 55 60
53 50 47 40 36 30 26 22 20 18 17 17 12 9 10 14 9 5 5 4 8 5 13 11 26 9 15 7 7 8 3 1 1 7 6 6 7 10 12 10 9 10 8 9 12 17 24 33 44 53 59 59 60 64
60 55 52 48 42 37 32 28 25 24 17 18 11 13 13 9 6 8 2 5 6 10 15 15 13 12 12 11 8 6 5 3 10 2 4 7 9 17 9 14 15 11 12 15 22 30 37 45 49 56 61 64 63 65
69 63 58 53 48 44 40 36 30 27 22 18 10 10 9 5 6 16 13 8 4 16 24 19 8 15 11 10 11 6 6 9 2 2 8 10 5 15 16 12 5 8 16 25 32 40 46 51 56 62 67 64 65 63
72 67 60 56 52 46 41 41 38 34 19 12 15 7 11 8 12 11 10 10 15 14 46 39 18 9 9 7 7 8 3 4 3 5 13 6 27 23 14 3 8 15 25 34 42 48 54 58 59 56 59 62 64 62
69 65 60 55 56 53 45 48 35 40 16 13 12 11 14 19 9 11 23 12 17 41 55 22 14 5 2 6 2 7 3 10 12 10 7 15 33 23 8 12 23 34 40 47 55 62 65 64 62 61 56 56 57 55
67 61 67 64 59 60 57 51 40 37 12 14 20 4 11 3 6 15 25 23 35 59 28 10 8 7 8 8 7 17 10 15 7 8 17 28 31 18 17 27 34 37 46 55 60 63 61 58 59 58 54 51 49 47
70 76 75 69 62 63 76 62 49 24 22 17 17 35 27 10 15 30 40 30 53 48 7 9 12 18 6 4 7 10 11 7 15 17 9 15 26 26 33 35 40 48 54 58 57 53 53 53 53 53 51 41 39 37
83 79 72 72 73 75 89 64 30 24 25 29 12 34 47 42 32 21 33 49 54 37 22 12 17 10 12 14 8 9 36 28 18 15 19 21 28 37 38 45 48 53 54 51 49 48 46 46 45 44 43 42 37 35
91 88 80 80 93 81 42 37 34 15 39 21 38 38 48 38 56 53 47 53 65 40 20 22 10 10 9 12 13 20 22 25 27 25 33 45 43 43 47 47 51 49 45 42 39 38 38 39 40 39 37 37 36 34
84 81 81 81 104 48 22 21 28 29 18 29 29 36 41 35 50 57 57 57 74 26 13 11 12 28 19 29 37 40 31 32 40 54 58 53 47 43 43 45 44 39 33 30 32 35 33 29 31 32 31 31 32 31
83 84 78 86 100 58 28 21 30 16 16 24 26 41 22 26 30 40 48 59 42 19 8 51 75 84 76 72 57 48 49 51 57 52 47 45 41 37 38 36 32 29 27 26 25 26 29 29 28 28 29 29 29 29
79 88 67 106 43 30 37 40 18 25 15 9 28 25 14 11 16 28 31 37 23 42 51 62 75 82 86 84 78 69 65 68 57 50 45 42 37 30 27 23 19 20 20 19 19 19 20 22 24 26 26 26 27 27
72 99 64 44 26 42 17 46 25 28 9 14 27 10 5 9 13 32 15 22 25 61 66 78 89 90 86 85 79 68 61 59 44 42 39 34 28 23 18 15 13 12 13 15 15 15 17 19 21 22 23 23 23 24
93 64 44 40 33 18 28 27 21 23 18 12 11 9 9 14 25 8 9 11 30 33 60 81 94 93 89 87 85 76 56 46 43 34 31 27 22 18 15 11 10 9 9 9 13 14 14 15 16 18 19 21 23 24
44 34 29 16 23 18 13 12 10 8 22 9 12 9 8 19 7 9 9 8 38 53 69 78 83 87 91 72 77 62 49 41 31 28 26 24 21 17 15 12 10 9 9 7 7 8 9 12 15 18 22 24 25 27
24 22 24 29 17 18 27 29 21 13 10 12 8 12 15 8 10 14 8 20 53 49 66 75 81 78 74 74 61 48 39 33 28 29 26 23 20 18 15 14 11 7 4 2 5 9 13 15 18 20 23 26 28 30
18 11 16 26 31 25 7 5 17 9 14 15 13 13 10 11 15 8 11 22 28 39 40 46 57 64 66 53 47 38 31 31 32 27 23 23 19 16 15 11 9 9 11 13 14 15 15 18 20 21 24 27 31 36
10 23 24 17 9 44 25 10 14 19 10 23 23 17 24 19 8 5 6 8 16 20 23 29 33 34 30 32 32 33 39 38 32 27 23 19 16 15 13 15 18 19 20 18 17 17 17 17 18 20 25 30 36 41
6 26 34 12 7 8 13 20 17 13 38 37 18 12 9 9 7 8 8 10 13 15 16 18 23 26 31 36 38 36 31 30 28 26 23 19 21 20 24 27 26 24 22 21 17 14 12 12 16 22 28 35 41 45
6 21 7 8 9 6 6 5 10 27 22 24 26 22 17 14 17 14 12 15 18 19 22 23 29 31 35 36 36 33 29 25 22 19 20 23 25 31 32 31 28 27 24 17 12 8 8 14 20 25 31 39 45 52
7 10 11 8 7 6 32 43 40 40 22 20 21 21 25 21 25 27 19 17 18 21 24 25 26 29 27 27 26 23 23 23 23 24 25 29 33 31 31 31 31 26 19 12 7 6 13 19 25 31 39 47 53 61
10 6 8 9 6 20 21 12 15 15 15 13 14 16 14 13 12 11 19 13 14 17 21 21 22 24 25 25 25 23 22 27 28 28 30 32 33 32 33 31 26 20 13 7 4 11 20 27 34 41 49 55 61 66
10 14 14 12 6 7 9 14 10 10 16 10 15 14 14 11 10 15 17 12 9 12 15 17 19 21 23 25 23 22 27 29 29 29 30 31 33 34 32 27 21 15 8 1 11 21 30 37 42 47 54 60 66 66
Wind_Direction_850mb
200 196 206 206 206 205 210 194 159 114 102 101 105 75 35 24 20 26 41 49 63 100 171 201 195 164 151 172 136 149 64 24 52 63 109 217 128 232 79 215 186 180 169 200 161 199 265 188 179 196 225 324 308 304
212 202 202 205 213 210 207 207 210 212 228 281 310 318 323 321 322 319 316 326 5 86 156 192 220 211 219 208 170 159 147 177 177 85 59 103 266 17 166 263 184 261 197 191 188 218 235 214 244 277 294 301 309 306
219 213 207 202 204 212 218 220 225 238 254 262 273 295 303 315 326 318 292 273 296 291 249 233 229 231 231 228 214 154 190 196 192 179 160 180 223 125 174 240 245 262 236 234 207 272 257 278 289 293 302 310 317 319
237 222 214 214 214 215 213 214 216 225 241 246 245 248 300 329 340 342 37 346 210 290 97 173 176 170 216 219 208 212 157 176 194 193 217 188 179 193 235 236 198 218 180 209 262 281 287 277 288 316 313 313 314 314
220 234 219 217 219 220 222 222 223 234 246 243 237 262 285 305 317 354 92 302 219 281 315 313 280 290 259 216 200 206 200 216 220 197 222 238 225 253 259 280 252 205 213 190 229 260 265 278 301 306 302 305 308 308
218 219 222 219 218 220 221 223 227 229 235 245 254 257 258 275 63 113 73 203 215 230 261 319 315 4 38 159 196 212 220 215 207 195 208 230 227 233 258 250 240 241 237 241 248 272 288 293 291 296 290 301 302 303
224 220 218 217 210 211 218 220 223 227 230 236 241 247 256 257 229 222 180 139 90 158 194 294 265 190 149 154 183 202 208 197 203 216 228 224 194 203 246 246 202 227 243 260 281 289 288 292 283 287 297 299 302 305
210 215 217 212 203 198 211 219 216 217 222 228 238 249 249 245 244 228 217 190 174 241 178 242 263 203 178 176 172 183 177 193 209 239 241 205 212 212 249 240 263 276 277 287 288 280 289 288 291 299 302 311 313 321
207 209 209 203 201 197 195 189 192 206 213 211 220 239 266 231 211 238 242 211 204 227 217 214 171 231 164 167 162 175 188 184 209 221 228 192 199 225 234 256 265 278 293 293 293 299 305 327 328 331 331 334 330 329
207 209 209 204 200 199 193 183 177 177 178 183 186 192 198 191 190 172 81 109 189 215 227 240 195 167 161 162 177 166 210 223 237 256 288 211 254 255 255 257 275 284 287 296 329 0 351 352 349 341 338 335 330 325
212 211 211 210 206 202 201 197 188 182 172 172 182 185 173 168 169 162 113 128 183 278 215 215 202 145 177 137 184 193 177 280 32 257 159 271 272 239 191 209 212 161 110 59 26 2 348 337 333 328 327 325 320 317
216 215 213 211 211 207 206 208 199 189 181 178 171 156 160 173 145 97 223 326 219 224 187 166 166 167 155 168 127 163 150 53 248 338 69 264 253 218 175 144 118 79 39 12 351 339 331 326 321 317 315 314 312 311
217 217 216 212 208 210 207 210 202 190 178 160 194 168 175 174 69 172 206 249 264 194 177 159 144 161 144 172 92 102 130 221 114 57 235 236 288 163 154 125 72 358 340 333 331 327 322 320 316 314 312 312 309 310
219 216 216 210 204 208 205 206 199 185 177 203 176 238 181 215 237 192 182 183 185 174 158 148 125 146 139 130 141 132 197 81 358 252 236 244 209 176 161 198 306 311 315 320 322 321 320 317 316 315 314 313 312 310
216 213 208 207 200 201 203 209 203 189 199 216 197 224 212 225 238 207 193 162 157 157 151 123 93 148 71 107 173 101 47 245 215 230 230 215 165 175 216 290 312 317 316 318 317 317 317 315 313 313 313 312 308 307
209 206 207 206 197 191 201 206 201 198 223 230 224 221 210 168 224 209 197 183 165 160 153 140 124 90 234 144 134 213 178 221 235 217 230 180 188 219 275 301 301 303 309 312 314 314 314 314 313 314 314 311 307 308
204 205 205 199 191 186 201 201 197 201 220 220 230 219 207 241 218 212 204 188 173 163 181 145 159 206 101 88 235 194 214 216 217 214 185 211 234 263 289 295 304 306 307 310 312 314 315 316 317 316 313 312 306 308
206 206 206 194 182 183 188 190 197 221 229 217 194 198 211 222 225 210 194 186 170 192 178 205 140 192 205 195 220 221 230 239 233 230 259 285 278 285 289 300 302 304 308 312 314 317 318 319 318 317 314 312 313 314
205 205 203 190 186 184 181 200 207 236 220 204 211 206 217 220 228 233 230 214 197 194 195 173 228 208 224 212 221 237 232 256 273 280 299 308 304 297 297 297 301 306 310 312 317 322 325 326 325 325 323 321 320 322
209 207 204 197 191 185 180 212 203 230 206 224 210 195 210 219 218 220 221 214 202 195 184 209 208 233 215 227 244 254 266 263 278 292 293 298 297 291 291 295 298 301 307 317 322 324 327 331 327 330 329 327 326 329
203 202 200 195 191 199 197 210 205 226 211 195 198 203 207 206 205 203 207 207 194 211 229 225 240 249 252 257 257 255 257 274 282 282 285 292 289 283 288 288 291 297 308 317 324 326 331 337 341 342 341 338 337 336
196 187 181 188 192 200 216 214 218 181 183 157 156 169 154 165 188 202 201 193 226 226 228 236 243 250 255 258 258 257 261 272 272 273 281 283 280 278 276 272 275 286 299 317 330 337 342 345 344 344 345 345 346 344
186 185 185 186 184 191 220 206 187 183 161 181 153 123 190 203 197 174 221 220 235 232 234 238 244 249 255 259 260 256 254 260 255 267 276 270 267 263 253 253 258 271 298 310 320 336 343 346 347 347 349 350 351 351
186 181 189 182 179 176 174 190 200 153 131 155 156 188 183 164 160 201 255 240 223 221 228 239 243 245 247 250 252 252 248 248 257 260 255 250 241 234 233 231 240 258 271 294 317 327 341 349 356 4 8 14 17 18
183 184 182 177 172 135 151 158 165 172 209 141 160 182 171 156 171 226 221 242 214 226 232 233 237 242 242 248 255 250 240 245 247 241 229 216 215 214 214 217 229 253 286 312 342 2 16 32 40 42 43 40 34 27
202 191 175 168 160 179 200 201 182 162 127 152 179 109 147 156 195 240 208 215 213 225 227 233 236 239 241 242 245 242 242 237 221 209 202 200 204 204 214 226 229 228 211 146 95 87 80 72 60 50 43 38 31 22
200 155 162 165 167 168 94 153 130 137 176 180 155 152 159 203 231 232 201 206 206 214 224 232 238 243 249 247 238 234 217 199 193 191 186 190 200 213 221 220 199 179 150 128 116 102 88 78 65 47 32 22 14 6
148 156 167 171 155 196 192 131 152 182 162 147 139 170 178 202 199 169 201 223 213 215 221 228 230 229 223 211 204 193 182 179 176 175 183 193 202 206 195 173 156 145 136 126 117 109 92 67 46 29 16 8 360 353
139 163 138 156 121 175 191 188 186 165 153 165 165 158 143 97 100 136 136 139 153 159 165 169 162 165 167 164 165 167 172 173 180 182 191 197 188 178 163 154 148 145 140 132 125 102 74 42 19 7 359 354 349 344
119 159 101 115 145 135 34 66 106 134 137 134 124 112 98 93 77 99 118 139 145 150 153 155 154 156 161 163 164 166 171 179 185 185 192 183 171 162 156 153 150 147 140 138 125 93 34 5 354 347 344 343 341 340
87 86 78 62 72 68 102 98 110 102 88 72 81 102 117 122 86 71 87 110 125 136 145 149 153 156 161 162 162 164 170 173 171 166 163 158 157 158 157 156 153 150 150 144 106 27 358 345 337 336 338 340 340 338
47 66 117 108 104 144 112 70 66 63 49 51 62 82 95 91 75 58 39 89 115 137 143 146 150 154 158 156 157 162 166 166 165 163 161 161 162 163 162 161 161 160 161 135 40 357 349 344 341 338 337 337 337 336
88 85 100 108 116 161 146 105 88 89 56 55 51 54 59 75 84 34 29 46 112 130 138 145 150 155 157 155 158 159 159 159 160 164 166 168 169 168 169 172 173 176 177 341 338 339 339 337 336 335 335 334 333 333